Location: Huberhof
(49.2050°N, 7.4980°E)
Time: 04:14:02
(UTC+00:00)

NOSS 3-3 (A) - Pass Details

Date: 29 October 2020
Orbit: 826 x 1387 km, 63.4° (Epoch: 22 November)

Event Time Altitude Azimuth Distance (km) Brightness Sun altitude
Rises 18:03:57 0° 211° (SSW) 3,417 7.3 -18.6°
Reaches altitude 10° 18:06:19 10° 209° (SSW) 2,526 6.5 -18.9°
Maximum altitude 18:12:07 71° 126° (SE) 1,003 3.8 -19.9°
Enters shadow 18:16:11 24° 48° (NE) 1,953 5.2 -20.6°
